Terug naar catalogus

STARLINK-34829

ActiefCommunicatieVLEO
NORAD 65470·PAYLOAD·🇺🇸 United States

Gelanceerd Sep 3, 2025 vanaf Cape Canaveral Space Force Station

Loading…

Volgende Passages (komende 24 uur)

TLE

VersSource: CelesTrak SupGP

Epoch: Sep 14, 2026, 15:26 UTC

1 65470C 25195N   26257.64354167 -.00012932  00000+0 -41580-3 0  2578
2 65470  53.1581  98.9152 0001242  89.8472 349.7575 15.31712300    12

Volg STARLINK-34829 in realtime met AllMySat

Download on the App Store